Regional Weather Roundup
Issued by NWS

Home | Current Version | Previous Version | Text Only | Print | Product List | Glossary On
Versions: 1 2 3 4 5 6 7 8 9 10 11 12 13 14 15 16 17 18 19 20 21 22 23 24 25 26 27 28 29 30 31 32 33 34 35 36 37 38 39 40 41 42 43 44 45 46 47 48 49 50
000
ASUS43 KLSX 030507
RWRMO

WEATHER SUMMARY FOR MISSOURI
NATIONAL WEATHER SERVICE SPRINGFIELD MO
1100 PM CST MON MAR 02 2015

NOTE: "FAIR" INDICATES FEW OR NO CLOUDS BELOW 12,000 FEET WITH NO
       SIGNIFICANT WEATHER AND/OR OBSTRUCTIONS TO VISIBILITY.
       CURRENT SKY AND/OR WEATHER CONDITIONS ARE NOT AVAILABLE FOR
       CHILLICOTHE AND FARMINGTON.

MOZ001>031-035>038-043-044-053-054-030600-
...NORTHERN AND WESTERN MISSOURI...

CITY           SKY/WX    TMP DP  RH WIND       PRES   REMARKS
KANSAS CTY INT CLOUDY    34  24  67 S15       30.00F WCI  24
KANSAS C DTWN  CLOUDY    36  24  62 S12       30.03F WCI  28
LEE`S SUMMIT   CLOUDY    34  24  67 S13G20    30.04F WCI  25
ST JOSEPH      CLOUDY    33  21  61 SE13      30.00F WCI  24
CHILLICOTHE      N/A     33  22  63 SE10G20   30.06F WCI  25
KIRKSVILLE     CLOUDY    30  21  69 SE15      30.10F WCI  19

$$
MOZ066>068-077>081-088>096-101>105-030600-
...SOUTHWEST MISSOURI...

CITY           SKY/WX    TMP DP  RH WIND       PRES   REMARKS
SPRINGFIELD    CLOUDY    34  23  64 SE18      30.07F WCI  23
JOPLIN         CLOUDY    35  30  82 S8        30.08F WCI  29

$$
MOZ032>034-039>042-045>050-055>058-069>072-030600-
...CENTRAL MISSOURI...

CITY           SKY/WX    TMP DP  RH WIND       PRES   REMARKS
COLUMBIA       MIX PCPN  32  21  64 SE13      30.08F WCI  22
JEFFERSON CITY CLOUDY    33  21  61 E12       30.13F WCI  24
ROLLA          CLOUDY    34  20  56 SE14      30.10F WCI  25
SEDALIA        CLOUDY    35  24  64 SE3       30.10F
WHITEMAN AFB   CLOUDY    35  24  66 S9        30.06F WCI  27
WARRENSBURG    CLOUDY    34  27  75 SE6       30.07F WCI  29
OSAGE BEACH    CLOUDY    37  18  44 SE10G18   30.10F

$$
MOZ051-052-059>065-030600-
...EAST CENTRAL MISSOURI...

CITY           SKY/WX    TMP DP  RH WIND       PRES   REMARKS
ST LOUIS INTL  CLOUDY    33  20  58 S9        30.23F WCI  25
SPIRIT OF STL  CLOUDY    32  20  61 SE8       30.19F WCI  25
ST CHARLES     CLOUDY    31  22  69 SE10      30.23F WCI  22

$$
MOZ072>076-082>087-097>100-106>115-030600-
...SOUTH CENTRAL AND SOUTHEAST MISSOURI...

CITY           SKY/WX    TMP DP  RH WIND       PRES   REMARKS
CAPE GIRARDEAU CLOUDY    36  25  64 NE3       30.26F
FARMINGTON     CLOUDY    34  23  64 SE6       30.22F WCI  29
POPLAR BLUFF   CLOUDY    35  23  61 NE3       30.23F
WEST PLAINS    CLOUDY    32  20  61 SE10      30.19F WCI  24

$$


USA.gov is the U.S. government's official web portal to all federal, state and local government web resources and services.